Diego Sevilla

Team Polti Kometa, Spania, 28 år

Pro Cycling Manager

Rittprogram

Informasjon

Diego Sevilla er en 28 år gammel profesjonell syklist fra Spania (født 4.mars 1996), som sykler for Team Polti Kometa (UCI ProTeam). Han er nummer 1316 på UCI rankingen.

2024 2023 2022 2021 2020 2019 2018 2017 2016 2015

Team Polti Kometa (ProTeam) UCI Ranking: 1316 (39pts)
Alle Flatt Kupert Fjell Tempo
Dato Pos GC Ritt UCI
14.07 40 Giro dell'Appennino | 1.1 2024-07-14Vis mer
11.02 90 Clasica de Almeria | 1.Pro 2024-02-11Vis mer
28.01 96 Trofeo Palma | 1.1 2024-01-28Vis mer
27.01 59 Trofeo Andratx | 1.1 2024-01-27Vis mer
25.01 68 Trofeo Ses Salines - Felanitx | 1.1 2024-01-25Vis mer
24.01 117 Trofeo Calvia | 1.1 2024-01-24Vis mer
21.01 98 Ruta de la Cerámica | 1.1 2024-01-21Vis mer
04.02 Volta Comunitat Valenciana | 2.Pro 2024-02-04 Vis mer
04.02 71 Volta Comunitat Valenciana | Sammenlagt 2024-02-04
18.02 Vuelta a Andalucía | 2.Pro 2024-02-18 Vis mer
18.02 94 Vuelta a Andalucía | Sammenlagt 2024-02-18
02.03 DNF Strade Bianche | 1.UWT 2024-03-02Vis mer
16.06 Belgium Tour | 2.Pro 2024-06-16 Vis mer
16.06 86 Belgium Tour | Sammenlagt 2024-06-16
23.06 DNF Spain RR | CN 2024-06-23Vis mer
09.06 ZLM Tour | 2.1 2024-06-09 Vis mer
09.06 73 ZLM Tour | Sammenlagt 2024-06-09
26.05 Boucles de la Mayenne | 2.Pro 2024-05-26 Vis mer
26.05 25 Boucles de la Mayenne | Sammenlagt 2024-05-265
12.05 Tour de Hongrie | 2.Pro 2024-05-12 Vis mer
12.05 39 Tour de Hongrie | Sammenlagt 2024-05-123
28.04 Tour of Türkiye | 2.Pro 2024-04-28 Vis mer
28.04 55 Tour of Türkiye | Sammenlagt 2024-04-28
23.03 Coppi e Bartali | 2.1 2024-03-23 Vis mer
23.03 28 Coppi e Bartali | Sammenlagt 2024-03-23
16.03 51 Milano-Sanremo | 1.UWT 2024-03-1610Vis mer
13.03 77 Milano - Torino | 1.Pro 2024-03-13Vis mer
12.05 19 Tour de Hongrie | Poeng 2024-05-12
26.05 24 Boucles de la Mayenne | Poeng 2024-05-26
12.05 9 Tour de Hongrie | Fjell 2024-05-12
26.05 14 Boucles de la Mayenne | Fjell 2024-05-26
04.02 12 Volta Comunitat Valenciana | Fjell 2024-02-04
16.06 9 Belgium Tour | Sprint 2024-06-16
16.06 7186 Belgium Tour | 5.etappe 2024-06-16
15.06 10499 Belgium Tour | 4.etappe 2024-06-15
14.06 8891 Belgium Tour | 3.etappe 2024-06-14
13.06 79126 Belgium Tour | 2.etappe 2024-06-13
12.06 134134 Belgium Tour | 1.etappe 2024-06-12
09.06 6573 ZLM Tour | 5.etappe 2024-06-09
08.06 8796 ZLM Tour | 4.etappe 2024-06-08
07.06 115100 ZLM Tour | 3.etappe 2024-06-07
06.06 10876 ZLM Tour | 2.etappe 2024-06-06
05.06 8181 ZLM Tour | 1.etappe 2024-06-05
26.05 5225 Boucles de la Mayenne | 3.etappe 2024-05-26
25.05 2831 Boucles de la Mayenne | 2.etappe 2024-05-25
24.05 7177 Boucles de la Mayenne | 1.etappe 2024-05-24
23.05 8383 Boucles de la Mayenne | Prolog 2024-05-23
12.05 2639 Tour de Hongrie | 5.etappe 2024-05-12
11.05 9361 Tour de Hongrie | 4.etappe 2024-05-11
10.05 6058 Tour de Hongrie | 3.etappe 2024-05-10
09.05 8993 Tour de Hongrie | 2.etappe 2024-05-09
08.05 103103 Tour de Hongrie | 1.etappe 2024-05-08
27.04 13355 Tour of Türkiye | 7.etappe 2024-04-27
26.04 6456 Tour of Türkiye | 6.etappe 2024-04-26
25.04 7348 Tour of Türkiye | 5.etappe 2024-04-25
24.04 6149 Tour of Türkiye | 4.etappe 2024-04-24
23.04 6753 Tour of Türkiye | 3.etappe 2024-04-23
22.04 3247 Tour of Türkiye | 2.etappe 2024-04-22
21.04 9495 Tour of Türkiye | 1.etappe 2024-04-21
23.03 4028 Coppi e Bartali | 5.etappe 2024-03-23
22.03 1823 Coppi e Bartali | 4.etappe 2024-03-22
21.03 3840 Coppi e Bartali | 3.etappe 2024-03-21
20.03 4541 Coppi e Bartali | 2.etappe 2024-03-20
19.03 99 Coppi e Bartali | 1.etappe 2024-03-19
16.02 9494 Vuelta a Andalucía | 3.etappe 2024-02-16
04.02 2371 Volta Comunitat Valenciana | 5.etappe 2024-02-04
03.02 6288 Volta Comunitat Valenciana | 4.etappe 2024-02-03
02.02 8399 Volta Comunitat Valenciana | 3.etappe 2024-02-02
01.02 115104 Volta Comunitat Valenciana | 2.etappe 2024-02-01
31.01 9393 Volta Comunitat Valenciana | 1.etappe 2024-01-31